| time (UTC) | temp C | wind direction | speed KPH | gust KPH | rain 1hr cm | rain 24hr cm | rain mn cm | humidity % | barometer mb |
| 20260505041517 | 5 | 239 | 8.0 | 16.1 | 0.00 | 0.13 | 0.00 | 89 | 1006.6 |
| 20260505040015 | 5 | 207 | 11.3 | 19.3 | 0.00 | 0.13 | 0.00 | 88 | 1006.5 |
| 20260505034510 | 5 | 210 | 11.3 | 19.3 | 0.00 | 0.13 | 0.00 | 87 | 1006.2 |
| 20260505033107 | 5 | 204 | 12.9 | 25.7 | 0.00 | 0.13 | 0.00 | 86 | 1006.1 |
| 20260505031505 | 6 | 214 | 9.7 | 19.3 | 0.00 | 0.13 | 0.00 | 85 | 1005.8 |
| 20260505030002 | 6 | 205 | 9.7 | 17.7 | 0.00 | 0.13 | 0.13 | 84 | 1005.6 |
| 20260505024559 | 6 | 220 | 12.9 | 29.0 | 0.00 | 0.13 | 0.13 | 83 | 1005.3 |
| 20260505023058 | 6 | 220 | 14.5 | 29.0 | 0.00 | 0.13 | 0.13 | 81 | 1005.2 |
| 20260505021557 | 7 | 218 | 9.7 | 22.5 | 0.00 | 0.13 | 0.13 | 80 | 1005.0 |
| 20260505020105 | 6 | 179 | 11.3 | 19.3 | 0.00 | 0.13 | 0.13 | 81 | 1004.9 |
| 20260505014605 | 6 | 227 | 4.8 | 12.9 | 0.00 | 0.15 | 0.13 | 81 | 1005.0 |
| 20260505013055 | 6 | 251 | 1.6 | 9.7 | 0.00 | 0.15 | 0.13 | 80 | 1005.1 |
| 20260505011554 | 7 | 199 | 8.0 | 14.5 | 0.00 | 0.15 | 0.13 | 78 | 1005.1 |
| 20260505010055 | 7 | 198 | 8.0 | 12.9 | 0.00 | 0.15 | 0.13 | 76 | 1005.0 |
| 20260505004555 | 7 | 216 | 8.0 | 16.1 | 0.00 | 0.28 | 0.13 | 74 | 1004.9 |
| 20260505003053 | 7 | 216 | 8.0 | 16.1 | 0.00 | 0.28 | 0.13 | 76 | 1004.6 |
| 20260505001550 | 7 | 202 | 12.9 | 25.7 | 0.00 | 0.28 | 0.13 | 76 | 1004.6 |
| 20260505000054 | 7 | 200 | 12.9 | 22.5 | 0.00 | 0.28 | 0.13 | 75 | 1004.3 |
| 20260504234544 | 7 | 202 | 12.9 | 22.5 | 0.00 | 0.79 | 0.13 | 75 | 1003.9 |
| 20260504233044 | 7 | 185 | 16.1 | 22.5 | 0.00 | 0.79 | 0.13 | 74 | 1003.8 |
| 20260504231542 | 8 | 203 | 11.3 | 22.5 | 0.00 | 0.79 | 0.13 | 72 | 1003.6 |
| 20260504230046 | 8 | 201 | 12.9 | 19.3 | 0.00 | 1.65 | 0.13 | 68 | 1003.4 |
| 20260504224545 | 11 | 222 | 16.1 | 32.2 | 0.00 | 1.65 | 0.13 | 59 | 1003.2 |
| 20260504223038 | 11 | 232 | 22.5 | 37.0 | 0.00 | 1.65 | 0.13 | 55 | 1003.1 |
| 20260504221538 | 12 | 233 | 19.3 | 30.6 | 0.00 | 1.65 | 0.13 | 56 | 1002.7 |
| 20260504220035 | 12 | 229 | 20.9 | 37.0 | 0.00 | 2.13 | 0.13 | 56 | 1002.8 |
| 20260504214534 | 12 | 253 | 20.9 | 38.6 | 0.00 | 2.13 | 0.13 | 58 | 1002.5 |
| 20260504213033 | 12 | 247 | 24.1 | 40.2 | 0.00 | 2.13 | 0.13 | 58 | 1002.4 |
| 20260504211533 | 12 | 233 | 16.1 | 41.8 | 0.00 | 2.13 | 0.13 | 60 | 1002.3 |
| 20260504210036 | 12 | 254 | 25.7 | 43.5 | 0.00 | 2.26 | 0.13 | 59 | 1002.1 |
| 20260504204532 | 12 | 250 | 20.9 | 48.3 | 0.00 | 2.26 | 0.13 | 57 | 1001.8 |
| 20260504203027 | 12 | 242 | 30.6 | 51.5 | 0.00 | 2.26 | 0.13 | 54 | 1001.7 |
| 20260504201525 | 12 | 258 | 24.1 | 41.8 | 0.00 | 2.26 | 0.13 | 56 | 1001.1 |
| 20260504200021 | 12 | 213 | 22.5 | 46.7 | 0.00 | 2.29 | 0.13 | 59 | 1000.8 |
| 20260504194521 | 11 | 266 | 20.9 | 48.3 | 0.00 | 2.29 | 0.13 | 63 | 1000.5 |
| 20260504193018 | 11 | 236 | 24.1 | 64.4 | 0.00 | 2.29 | 0.13 | 65 | 1000.2 |
| 20260504191515 | 11 | 228 | 30.6 | 54.7 | 0.00 | 2.29 | 0.13 | 66 | 1000.1 |
| 20260504190012 | 11 | 245 | 29.0 | 51.5 | 0.00 | 2.31 | 0.13 | 70 | 999.7 |
| 20260504184510 | 11 | 232 | 25.7 | 49.9 | 0.00 | 2.31 | 0.13 | 71 | 999.8 |
| 20260504183010 | 10 | 209 | 27.4 | 48.3 | 0.00 | 2.31 | 0.13 | 74 | 999.5 |
| 20260504181506 | 10 | 254 | 27.4 | 54.7 | 0.00 | 2.31 | 0.13 | 76 | 999.4 |
| 20260504180001 | 9 | 235 | 27.4 | 43.5 | 0.00 | 2.31 | 0.13 | 78 | 999.4 |
| 20260504174601 | 8 | 246 | 19.3 | 40.2 | 0.00 | 2.31 | 0.13 | 80 | 999.1 |
| 20260504173108 | 8 | 263 | 30.6 | 62.8 | 0.00 | 2.31 | 0.13 | 79 | 998.8 |
| 20260504171601 | 8 | 258 | 22.5 | 49.9 | 0.00 | 2.31 | 0.13 | 82 | 998.4 |
| 20260504160142 | 6 | 264 | 27.4 | 46.7 | 0.00 | 2.31 | 0.13 | 91 | 996.7 |
| 20260504100140 | 2 | 264 | 27.4 | 45.1 | 0.00 | 2.31 | 0.13 | 93 | 982.2 |
| 20260504081531 | 3 | 230 | 16.1 | 48.3 | 0.08 | 2.31 | 0.13 | 94 | 979.1 |
| 20260504050014 | 3 | 181 | 25.7 | 59.5 | 0.00 | 2.18 | 0.00 | 95 | 976.9 |